Location: Christianberg
(48.9086°N, 14.0209°E)
Time: 17:50:39
(UTC+00:00)

FENGYUN 1C DEB - Pass Details

Date: 31 January 2022
Orbit: 832 x 1169 km, 98.6° (Epoch: 26 May)

Event Time Altitude Azimuth Distance (km) Brightness Sun altitude
Rises 16:26:47 0° 15° (NNE) 3,523 ? -4.9°
Reaches altitude 10° 16:29:08 10° 17° (NNE) 2,617 ? -5.3°
Maximum altitude 16:35:00 79° 104° (ESE) 994 ? -6.2°
Drops below altitude 10° 16:41:22 10° 191° (SSW) 2,828 ? -7.2°
Sets 16:43:58 0° 193° (SSW) 3,826 ? -7.6°
